Location: *
(50.3194°N, 7.1067°E)
Time: 00:22:06
(UTC+00:00)

GENESIS II - Pass Details

Date: 22 September 2019
Orbit: 480 x 550 km, 64.5° (Epoch: 19 October)

Event Time Altitude Azimuth Distance (km) Brightness Sun altitude
Rises 18:30:39 0° 318° (NW) 2,732 8.9 -10.3°
Reaches altitude 10° 18:32:53 10° 317° (NW) 1,834 7.9 -10.7°
Maximum altitude 18:37:00 82° 233° (SW) 560 4.4 -11.3°
Enters shadow 18:40:53 11° 144° (SE) 1,727 6.4 -11.9°
